Radiation Dose at Monitoring Post of Fukushima Daini Nuclear Power Station
Date,Time,MP-1(microSv/h),MP-2(microSv/h),MP-3(microSv/h),MP-4(microSv/h),MP-5(microSv/h),MP-6(microSv/h),MP-7(microSv/h),Wind Direction,Wind Velocity(m/s),Rain
2020/02/11,00:00,0.183,0.165,0.278,0.257,0.252,0.141,0.088,north-northwest,10.1,No
2020/02/11,00:10,0.183,0.166,0.278,0.256,0.253,0.141,0.087,north-northwest,9.3,No
2020/02/11,00:20,0.183,0.165,0.279,0.255,0.253,0.141,0.086,north-northwest,9.7,No
2020/02/11,00:30,0.181,0.165,0.277,0.256,0.252,0.141,0.087,north-northwest,10.1,No
2020/02/11,00:40,0.182,0.165,0.277,0.257,0.252,0.140,0.087,north-northwest,7.8,No
2020/02/11,00:50,0.182,0.165,0.278,0.256,0.252,0.139,0.085,north-northwest,6.2,No
2020/02/11,01:00,0.181,0.165,0.278,0.256,0.252,0.140,0.085,north-northwest,6.6,No
2020/02/11,01:10,0.182,0.165,0.277,0.257,0.253,0.140,0.086,north-northwest,8.1,No
2020/02/11,01:20,0.183,0.164,0.277,0.255,0.251,0.140,0.086,north-northwest,7.3,No
2020/02/11,01:30,0.182,0.164,0.277,0.256,0.252,0.140,0.086,north-northwest,7.9,No
2020/02/11,01:40,0.182,0.165,0.277,0.256,0.252,0.140,0.086,north-northwest,7.3,No
2020/02/11,01:50,0.180,0.165,0.278,0.257,0.252,0.140,0.086,north-northwest,5.0,No
2020/02/11,02:00,0.182,0.164,0.278,0.256,0.251,0.141,0.086,north-northwest,5.6,No
2020/02/11,02:10,0.181,0.165,0.276,0.256,0.251,0.139,0.085,north-northwest,6.1,No
2020/02/11,02:20,0.181,0.164,0.277,0.257,0.251,0.140,0.086,north-northwest,6.7,No
2020/02/11,02:30,0.181,0.165,0.276,0.258,0.251,0.140,0.086,northwest,5.2,No
2020/02/11,02:40,0.182,0.165,0.277,0.256,0.250,0.139,0.086,northwest,5.5,No
2020/02/11,02:50,0.182,0.164,0.277,0.256,0.251,0.139,0.086,northwest,5.5,No
2020/02/11,03:00,0.181,0.164,0.278,0.257,0.252,0.139,0.085,northwest,4.3,No
2020/02/11,03:10,0.183,0.165,0.277,0.256,0.251,0.139,0.086,northwest,3.7,No
2020/02/11,03:20,0.181,0.164,0.275,0.256,0.252,0.138,0.086,northwest,2.1,No
2020/02/11,03:30,0.181,0.164,0.277,0.256,0.252,0.139,0.085,northwest,1.9,No
2020/02/11,03:40,0.181,0.164,0.276,0.256,0.252,0.139,0.086,west-northwest,3.3,No
2020/02/11,03:50,0.181,0.164,0.277,0.255,0.251,0.139,0.086,west-northwest,3.4,No
2020/02/11,04:00,0.181,0.164,0.277,0.256,0.251,0.139,0.085,northwest,3.9,No
2020/02/11,04:10,0.182,0.164,0.276,0.255,0.251,0.138,0.085,northwest,4.2,No
2020/02/11,04:20,0.181,0.165,0.277,0.256,0.252,0.139,0.086,northwest,3.9,No
2020/02/11,04:30,0.181,0.164,0.277,0.256,0.251,0.140,0.085,northwest,3.4,No
2020/02/11,04:40,0.181,0.164,0.276,0.256,0.252,0.139,0.086,northwest,3.6,No
2020/02/11,04:50,0.181,0.164,0.277,0.256,0.252,0.140,0.086,northwest,4.2,No
2020/02/11,05:00,0.182,0.164,0.278,0.255,0.252,0.139,0.086,north-northwest,4.0,No
2020/02/11,05:10,0.182,0.164,0.276,0.256,0.253,0.139,0.086,north-northwest,3.4,No
2020/02/11,05:20,0.182,0.164,0.276,0.255,0.251,0.139,0.087,north-northwest,4.3,No
2020/02/11,05:30,0.181,0.166,0.277,0.256,0.251,0.140,0.087,north-northwest,4.0,No
2020/02/11,05:40,0.182,0.164,0.277,0.257,0.251,0.141,0.086,north-northwest,4.2,No
2020/02/11,05:50,0.182,0.165,0.278,0.257,0.251,0.139,0.086,north-northwest,3.7,No
2020/02/11,06:00,0.181,0.164,0.276,0.256,0.252,0.139,0.086,northwest,3.6,No
2020/02/11,06:10,0.183,0.164,0.277,0.257,0.253,0.140,0.086,northwest,2.9,No
2020/02/11,06:20,0.182,0.164,0.277,0.254,0.251,0.139,0.086,northwest,3.2,No
2020/02/11,06:30,0.181,0.164,0.277,0.255,0.251,0.139,0.086,northwest,5.0,No
2020/02/11,06:40,0.182,0.164,0.277,0.257,0.252,0.140,0.085,northwest,5.2,No
2020/02/11,06:50,0.181,0.164,0.276,0.256,0.252,0.139,0.085,northwest,4.5,No
2020/02/11,07:00,0.182,0.165,0.277,0.256,0.251,0.140,0.086,north-northwest,3.9,No
2020/02/11,07:10,0.181,0.164,0.277,0.256,0.251,0.139,0.087,west-northwest,2.8,No
2020/02/11,07:20,0.182,0.165,0.277,0.256,0.251,0.139,0.086,west,2.8,No
2020/02/11,07:30,0.181,0.166,0.277,0.255,0.251,0.141,0.085,west-northwest,3.3,No
2020/02/11,07:40,0.181,0.165,0.277,0.256,0.251,0.140,0.087,west-northwest,4.0,No
2020/02/11,07:50,0.181,0.165,0.277,0.256,0.251,0.140,0.086,northwest,4.2,No
2020/02/11,08:00,0.180,0.165,0.276,0.255,0.251,0.139,0.085,northwest,3.9,No
2020/02/11,08:10,0.180,0.164,0.277,0.257,0.252,0.139,0.086,north-northwest,4.7,No
2020/02/11,08:20,0.182,0.164,0.276,0.254,0.251,0.139,0.086,northwest,3.5,No
2020/02/11,08:30,0.181,0.165,0.276,0.256,0.252,0.139,0.086,northwest,3.8,No
2020/02/11,08:40,0.181,0.164,0.277,0.255,0.251,0.139,0.086,west-northwest,3.2,No
2020/02/11,08:50,0.181,0.164,0.277,0.255,0.252,0.140,0.085,northwest,3.3,No
2020/02/11,09:00,0.181,0.163,0.276,0.256,0.251,0.140,0.086,west-northwest,5.2,No
2020/02/11,09:10,0.180,0.164,0.277,0.255,0.251,0.139,0.085,west-northwest,4.6,No
2020/02/11,09:20,0.180,0.163,0.277,0.256,0.252,0.139,0.086,northwest,3.7,No
2020/02/11,09:30,0.181,0.165,0.278,0.254,0.252,0.139,0.085,northwest,4.0,No
2020/02/11,09:40,0.181,0.163,0.277,0.256,0.252,0.138,0.086,northwest,4.1,No
2020/02/11,09:50,0.180,0.164,0.277,0.254,0.252,0.139,0.086,west-northwest,4.6,No
2020/02/11,10:00,0.181,0.164,0.277,0.255,0.252,0.140,0.086,west-northwest,5.0,No
2020/02/11,10:10,0.181,0.164,0.277,0.255,0.253,0.140,0.085,west-northwest,5.6,No
2020/02/11,10:20,0.180,0.164,0.277,0.257,0.253,0.139,0.086,west-northwest,7.5,No
2020/02/11,10:30,0.181,0.165,0.276,0.256,0.251,0.139,0.086,northwest,8.4,No
2020/02/11,10:40,0.182,0.163,0.277,0.256,0.253,0.139,0.086,northwest,6.4,No
2020/02/11,10:50,0.181,0.165,0.276,0.257,0.254,0.139,0.086,northwest,4.6,No
2020/02/11,11:00,0.180,0.165,0.277,0.256,0.252,0.140,0.086,northwest,5.1,No
2020/02/11,11:10,0.181,0.164,0.275,0.255,0.253,0.140,0.085,northwest,5.8,No
2020/02/11,11:20,0.182,0.165,0.276,0.257,0.254,0.140,0.087,northwest,4.3,No
2020/02/11,11:30,0.180,0.164,0.277,0.256,0.252,0.140,0.085,northwest,5.9,Yes
2020/02/11,11:40,0.181,0.164,0.278,0.256,0.253,0.139,0.086,north-northwest,7.0,No
2020/02/11,11:50,0.183,0.165,0.276,0.256,0.252,0.140,0.085,northwest,6.5,No
2020/02/11,12:00,0.182,0.164,0.278,0.257,0.253,0.140,0.086,northwest,7.0,No
2020/02/11,12:10,0.181,0.165,0.278,0.257,0.253,0.140,0.086,northwest,5.7,No
2020/02/11,12:20,0.182,0.165,0.278,0.257,0.253,0.140,0.086,northwest,5.5,No
2020/02/11,12:30,0.181,0.165,0.277,0.257,0.254,0.141,0.086,northwest,6.2,No
2020/02/11,12:40,0.181,0.164,0.277,0.257,0.252,0.140,0.086,north-northwest,5.0,No
2020/02/11,12:50,0.182,0.164,0.278,0.256,0.253,0.140,0.086,northwest,5.6,No
2020/02/11,13:00,0.181,0.166,0.275,0.256,0.252,0.139,0.086,west-northwest,8.4,No
2020/02/11,13:10,0.181,0.165,0.276,0.255,0.252,0.140,0.087,north-northwest,6.1,No
2020/02/11,13:20,0.182,0.166,0.276,0.256,0.253,0.140,0.086,northwest,5.3,No
2020/02/11,13:30,0.180,0.165,0.277,0.255,0.254,0.140,0.085,west-northwest,6.4,No
2020/02/11,13:40,0.181,0.166,0.277,0.255,0.254,0.140,0.086,west-northwest,7.5,No
2020/02/11,13:50,0.182,0.166,0.278,0.256,0.253,0.141,0.086,west-northwest,6.8,No
2020/02/11,14:00,0.181,0.164,0.275,0.256,0.254,0.141,0.086,north-northwest,5.1,No
2020/02/11,14:10,0.181,0.164,0.277,0.258,0.254,0.140,0.085,north-northwest,5.9,No
2020/02/11,14:20,0.182,0.166,0.279,0.256,0.253,0.141,0.085,northwest,2.8,No
2020/02/11,14:30,0.182,0.165,0.279,0.258,0.253,0.140,0.086,north,5.4,No
2020/02/11,14:40,0.182,0.166,0.278,0.256,0.254,0.141,0.086,north,4.7,No
2020/02/11,14:50,0.181,0.165,0.278,0.257,0.255,0.139,0.086,north,4.1,No
2020/02/11,15:00,0.182,0.165,0.279,0.258,0.254,0.140,0.086,north,3.8,No
2020/02/11,15:10,0.183,0.166,0.277,0.257,0.255,0.140,0.086,north-northwest,3.3,No
2020/02/11,15:20,0.182,0.166,0.277,0.257,0.254,0.140,0.086,north-northwest,4.3,No
2020/02/11,15:30,0.182,0.166,0.279,0.258,0.253,0.140,0.086,north,2.1,No
2020/02/11,15:40,0.183,0.165,0.278,0.258,0.255,0.141,0.086,north,4.9,No
2020/02/11,15:50,0.182,0.167,0.278,0.258,0.253,0.140,0.086,north,5.3,No
2020/02/11,16:00,0.182,0.165,0.278,0.257,0.253,0.141,0.086,north,4.5,No
2020/02/11,16:10,0.182,0.165,0.278,0.258,0.254,0.141,0.086,north,5.1,No
2020/02/11,16:20,0.182,0.167,0.277,0.258,0.253,0.140,0.087,north,4.2,No
2020/02/11,16:30,0.182,0.166,0.277,0.256,0.254,0.141,0.086,north,3.7,No
2020/02/11,16:40,0.182,0.166,0.280,0.258,0.253,0.140,0.086,north-northwest,3.3,No
2020/02/11,16:50,0.182,0.166,0.279,0.258,0.254,0.140,0.086,north-northwest,1.8,No
2020/02/11,17:00,0.183,0.166,0.277,0.257,0.254,0.140,0.086,west-northwest,1.1,No
2020/02/11,17:10,0.182,0.166,0.277,0.257,0.253,0.141,0.086,west-northwest,1.4,No
2020/02/11,17:20,0.181,0.166,0.277,0.258,0.254,0.140,0.086,west,1.6,No
2020/02/11,17:30,0.182,0.166,0.277,0.258,0.253,0.140,0.085,west,3.1,No
2020/02/11,17:40,0.182,0.166,0.276,0.257,0.255,0.140,0.086,west,5.5,No
2020/02/11,17:50,0.181,0.166,0.278,0.258,0.252,0.140,0.086,west-northwest,4.8,No
2020/02/11,18:00,0.182,0.165,0.279,0.257,0.254,0.140,0.085,west,3.0,No
2020/02/11,18:10,0.183,0.166,0.277,0.258,0.253,0.141,0.086,west-northwest,5.8,No
2020/02/11,18:20,0.182,0.166,0.278,0.258,0.252,0.140,0.086,west,5.9,No
2020/02/11,18:30,0.183,0.165,0.278,0.258,0.253,0.141,0.086,west-northwest,5.4,No
2020/02/11,18:40,0.182,0.167,0.279,0.257,0.254,0.140,0.086,west-northwest,4.3,No
2020/02/11,18:50,0.182,0.165,0.279,0.258,0.254,0.140,0.086,west-northwest,4.8,No
2020/02/11,19:00,0.182,0.165,0.278,0.258,0.254,0.141,0.086,west,6.6,No
2020/02/11,19:10,0.182,0.165,0.278,0.257,0.253,0.140,0.086,west,8.2,No
2020/02/11,19:20,0.182,0.165,0.278,0.257,0.254,0.141,0.086,west,7.7,No
2020/02/11,19:30,0.182,0.166,0.277,0.257,0.253,0.140,0.086,west,7.3,No
2020/02/11,19:40,0.182,0.165,0.278,0.256,0.253,0.140,0.087,west-northwest,7.1,No
2020/02/11,19:50,0.182,0.165,0.278,0.258,0.253,0.140,0.086,west-northwest,5.1,No
2020/02/11,20:00,0.182,0.166,0.278,0.258,0.254,0.140,0.086,west-northwest,4.5,No
2020/02/11,20:10,0.183,0.165,0.279,0.258,0.253,0.141,0.086,west-northwest,4.3,No
2020/02/11,20:20,0.182,0.166,0.278,0.258,0.253,0.141,0.086,west-northwest,6.0,No
2020/02/11,20:30,0.183,0.165,0.278,0.257,0.253,0.140,0.086,west-northwest,5.4,No
2020/02/11,20:40,0.182,0.166,0.277,0.259,0.253,0.141,0.086,west-northwest,3.8,No
2020/02/11,20:50,0.182,0.165,0.279,0.257,0.253,0.141,0.086,northwest,3.7,No
2020/02/11,21:00,0.183,0.166,0.279,0.257,0.253,0.141,0.087,northwest,4.0,No
2020/02/11,21:10,0.183,0.166,0.276,0.257,0.253,0.140,0.086,northwest,5.2,No
2020/02/11,21:20,0.183,0.167,0.278,0.258,0.255,0.141,0.086,northwest,6.0,No
2020/02/11,21:30,0.182,0.166,0.278,0.259,0.254,0.140,0.087,north-northwest,3.8,No
2020/02/11,21:40,0.182,0.165,0.279,0.258,0.253,0.141,0.086,northwest,3.4,No
2020/02/11,21:50,0.183,0.167,0.278,0.259,0.254,0.141,0.087,northwest,2.4,No
2020/02/11,22:00,0.183,0.165,0.278,0.258,0.255,0.141,0.086,west-northwest,3.4,No
2020/02/11,22:10,0.183,0.165,0.278,0.258,0.253,0.141,0.087,west,5.1,No
2020/02/11,22:20,0.183,0.166,0.279,0.257,0.253,0.140,0.087,west,1.8,No
2020/02/11,22:30,0.182,0.167,0.277,0.258,0.254,0.140,0.087,west-northwest,2.8,No
2020/02/11,22:40,0.182,0.165,0.278,0.258,0.254,0.141,0.086,west-northwest,5.8,No
2020/02/11,22:50,0.183,0.167,0.279,0.258,0.253,0.141,0.086,west-northwest,6.1,No
2020/02/11,23:00,0.181,0.166,0.276,0.258,0.255,0.140,0.086,west-northwest,4.0,No
2020/02/11,23:10,0.182,0.166,0.280,0.259,0.254,0.141,0.087,northwest,3.9,No
2020/02/11,23:20,0.182,0.166,0.279,0.258,0.254,0.141,0.087,northwest,3.3,No
2020/02/11,23:30,0.182,0.166,0.278,0.257,0.253,0.141,0.086,west-northwest,3.9,No
2020/02/11,23:40,0.183,0.165,0.278,0.259,0.253,0.140,0.087,west-northwest,2.0,No
2020/02/11,23:50,0.182,0.165,0.278,0.258,0.253,0.140,0.087,east,1.2,No
